EJU3945 LIMC-EDDL

Flight info

Callsign EJU3945
Flight time 1h 15m
Altitude 39000
Route AOSTA5W AOSTA DCT ORSUD DCT MOLUS DCT GILIR DCT PENDU DCT IXILU DCT GIVOR DCT SORAL DCT IBERA N853 ARCKY T853 NVO T857 BIKMU BIKMU1A
Aircraft A320/M-SDE3FGHIRWY/LB1

Departure

Time 2026-05-07 08:31
Airport Milan Malpensa International Airport (LIMC)

Arrival

Time 2026-05-07 09:47
Airport Düsseldorf Airport (EDDL)
Time Latitude Longitude Altitude Speed Heading
2026-05-07 07:40 45.64604 8.72199 736 ft 0 kts 79°
2026-05-07 08:13 45.64603 8.72187 735 ft 4 kts 80°
2026-05-07 08:14 45.64599 8.72149 733 ft 4 kts 88°
2026-05-07 08:14 45.64601 8.72112 733 ft 4 kts 111°
2026-05-07 08:14 45.64613 8.72089 734 ft 1 kts 169°
2026-05-07 08:18 45.64607 8.72091 734 ft 5 kts 169°
2026-05-07 08:18 45.64565 8.72102 736 ft 4 kts 169°
2026-05-07 08:18 45.64542 8.72108 736 ft 3 kts 169°
2026-05-07 08:18 45.64510 8.72116 736 ft 8 kts 169°
2026-05-07 08:19 45.64468 8.72131 736 ft 6 kts 156°
2026-05-07 08:19 45.64439 8.72168 736 ft 6 kts 131°
2026-05-07 08:19 45.64424 8.72235 736 ft 10 kts 89°
2026-05-07 08:19 45.64437 8.72341 736 ft 10 kts 79°
2026-05-07 08:20 45.64426 8.72413 736 ft 9 kts 135°
2026-05-07 08:20 45.64360 8.72442 736 ft 12 kts 168°
2026-05-07 08:20 45.64270 8.72468 736 ft 15 kts 169°
2026-05-07 08:20 45.64157 8.72499 736 ft 18 kts 169°
2026-05-07 08:21 45.64045 8.72534 736 ft 12 kts 161°
2026-05-07 08:21 45.63956 8.72564 736 ft 15 kts 169°
2026-05-07 08:21 45.63844 8.72595 736 ft 15 kts 169°
2026-05-07 08:21 45.63729 8.72627 736 ft 18 kts 169°
2026-05-07 08:22 45.63687 8.72639 736 ft 19 kts 169°
2026-05-07 08:22 45.63153 8.72787 736 ft 20 kts 169°
2026-05-07 08:23 45.63039 8.72818 736 ft 15 kts 169°
2026-05-07 08:23 45.62924 8.72849 736 ft 18 kts 169°
2026-05-07 08:23 45.62799 8.72884 736 ft 18 kts 169°
2026-05-07 08:23 45.62662 8.72921 735 ft 20 kts 169°
2026-05-07 08:24 45.62545 8.72953 737 ft 18 kts 169°
2026-05-07 08:24 45.62443 8.72981 737 ft 13 kts 169°
2026-05-07 08:24 45.62351 8.73007 737 ft 15 kts 169°
2026-05-07 08:24 45.62252 8.73034 737 ft 13 kts 169°
2026-05-07 08:25 45.62153 8.73060 737 ft 12 kts 169°
2026-05-07 08:25 45.62081 8.73080 737 ft 11 kts 169°
2026-05-07 08:25 45.62012 8.73099 737 ft 10 kts 169°
2026-05-07 08:25 45.61930 8.73122 737 ft 13 kts 169°
2026-05-07 08:26 45.61792 8.73160 736 ft 10 kts 165°
2026-05-07 08:26 45.61728 8.73231 737 ft 13 kts 125°
2026-05-07 08:26 45.61673 8.73349 737 ft 13 kts 124°
2026-05-07 08:27 45.61638 8.73422 736 ft 8 kts 124°
2026-05-07 08:27 45.61605 8.73492 737 ft 9 kts 123°
2026-05-07 08:27 45.61585 8.73567 737 ft 2 kts 99°
2026-05-07 08:27 45.61585 8.73573 737 ft 0 kts 97°
2026-05-07 08:28 45.61584 8.73596 737 ft 4 kts 89°
2026-05-07 08:29 45.61588 8.73640 737 ft 6 kts 81°
2026-05-07 08:29 45.61596 8.73693 737 ft 5 kts 76°
2026-05-07 08:29 45.61608 8.73734 736 ft 4 kts 49°
2026-05-07 08:29 45.61631 8.73733 746 ft 3 kts 347°
2026-05-07 08:30 45.61638 8.73731 752 ft 0 kts 347°
2026-05-07 08:30 45.61646 8.73729 745 ft 11 kts 347°
2026-05-07 08:30 45.61995 8.73632 737 ft 87 kts 349°
2026-05-07 08:30 45.62790 8.73412 738 ft 144 kts 349°
2026-05-07 08:31 45.63915 8.73104 930 ft 171 kts 349°
2026-05-07 08:31 45.65056 8.72805 1709 ft 168 kts 350°
2026-05-07 08:31 45.65850 8.72619 2092 ft 177 kts 354°
2026-05-07 08:33 45.73440 8.67976 6286 ft 242 kts 261°
2026-05-07 08:33 45.73026 8.65627 7117 ft 244 kts 252°
2026-05-07 08:33 45.72468 8.63305 7825 ft 254 kts 251°
2026-05-07 08:33 45.71840 8.60824 8244 ft 274 kts 246°
2026-05-07 08:34 45.70805 8.58474 8987 ft 282 kts 234°
2026-05-07 08:34 45.69679 8.56168 9849 ft 285 kts 237°
2026-05-07 08:34 45.68595 8.53779 10420 ft 298 kts 238°
2026-05-07 08:34 45.67451 8.51166 10754 ft 318 kts 238°
2026-05-07 08:35 45.66264 8.48446 11415 ft 324 kts 238°
2026-05-07 08:35 45.65074 8.45734 12184 ft 327 kts 238°
2026-05-07 08:35 45.63852 8.42963 12966 ft 330 kts 238°
2026-05-07 08:35 45.62573 8.40214 13755 ft 334 kts 232°
2026-05-07 08:36 45.61075 8.37649 14445 ft 336 kts 231°
2026-05-07 08:36 45.59723 8.34911 15111 ft 338 kts 243°
2026-05-07 08:36 45.58888 8.31775 15776 ft 340 kts 258°
2026-05-07 08:36 45.58644 8.28420 16451 ft 342 kts 272°
2026-05-07 08:37 45.59001 8.25091 17116 ft 344 kts 286°
2026-05-07 08:37 45.59759 8.21827 17798 ft 347 kts 288°
2026-05-07 08:37 45.60529 8.18540 18448 ft 349 kts 288°
2026-05-07 08:37 45.61288 8.15269 19011 ft 352 kts 288°
2026-05-07 08:38 45.62057 8.11942 19593 ft 355 kts 288°
2026-05-07 08:38 45.62833 8.08568 20175 ft 357 kts 288°
2026-05-07 08:38 45.63614 8.05182 20739 ft 360 kts 288°
2026-05-07 08:38 45.64401 8.01772 21312 ft 363 kts 288°
2026-05-07 08:39 45.65193 7.98324 21846 ft 365 kts 288°
2026-05-07 08:39 45.65989 7.94855 22392 ft 368 kts 288°
2026-05-07 08:39 45.66785 7.91399 22914 ft 372 kts 288°
2026-05-07 08:39 45.67598 7.87863 23470 ft 375 kts 288°
2026-05-07 08:40 45.68413 7.84301 23944 ft 378 kts 288°
2026-05-07 08:40 45.69234 7.80693 24386 ft 380 kts 288°
2026-05-07 08:40 45.70053 7.77088 24830 ft 383 kts 288°
2026-05-07 08:40 45.70870 7.73492 25275 ft 385 kts 288°
2026-05-07 08:41 45.71703 7.69832 25714 ft 388 kts 288°
2026-05-07 08:41 45.72537 7.66150 26144 ft 390 kts 288°
2026-05-07 08:41 45.73382 7.62425 26553 ft 392 kts 288°
2026-05-07 08:41 45.74229 7.58690 26954 ft 395 kts 288°
2026-05-07 08:42 45.75067 7.54985 27346 ft 397 kts 288°
2026-05-07 08:42 45.75921 7.51207 27735 ft 400 kts 287°
2026-05-07 08:42 45.76777 7.47402 28121 ft 402 kts 287°
2026-05-07 08:42 45.77628 7.43610 28503 ft 404 kts 287°
2026-05-07 08:43 45.78539 7.39774 28861 ft 407 kts 292°
2026-05-07 08:43 45.79861 7.36175 29214 ft 410 kts 303°
2026-05-07 08:43 45.81653 7.32983 29575 ft 413 kts 314°
2026-05-07 08:43 45.83838 7.30319 29901 ft 417 kts 323°
2026-05-07 08:44 45.86221 7.27906 30205 ft 419 kts 323°
2026-05-07 08:44 45.88621 7.25480 30461 ft 422 kts 323°
2026-05-07 08:44 45.91021 7.23044 30737 ft 424 kts 323°
2026-05-07 08:44 45.93432 7.20584 31009 ft 425 kts 322°
2026-05-07 08:45 45.95852 7.18108 31268 ft 427 kts 322°
2026-05-07 08:45 45.98246 7.15654 31587 ft 427 kts 322°
2026-05-07 08:45 46.00663 7.13174 31958 ft 426 kts 322°
2026-05-07 08:45 46.03081 7.10694 32328 ft 425 kts 322°
2026-05-07 08:46 46.05487 7.08225 32693 ft 425 kts 322°
2026-05-07 08:46 46.07896 7.05753 33064 ft 424 kts 322°
2026-05-07 08:46 46.10301 7.03290 33465 ft 423 kts 321°
2026-05-07 08:46 46.12669 7.00861 33844 ft 422 kts 321°
2026-05-07 08:47 46.15068 6.98397 34187 ft 422 kts 321°
2026-05-07 08:47 46.17463 6.95932 34492 ft 422 kts 321°
2026-05-07 08:47 46.19853 6.93460 34751 ft 422 kts 321°
2026-05-07 08:47 46.22215 6.91015 34965 ft 423 kts 321°
2026-05-07 08:48 46.24614 6.88527 35189 ft 424 kts 321°
2026-05-07 08:48 46.27015 6.86036 35409 ft 424 kts 321°
2026-05-07 08:48 46.29421 6.83539 35637 ft 425 kts 321°
2026-05-07 08:48 46.31806 6.81055 35855 ft 426 kts 321°
2026-05-07 08:49 46.34214 6.78548 36066 ft 426 kts 321°
2026-05-07 08:49 46.36629 6.76039 36277 ft 427 kts 321°
2026-05-07 08:49 46.39016 6.73558 36475 ft 427 kts 321°
2026-05-07 08:49 46.41439 6.71033 36686 ft 428 kts 321°
2026-05-07 08:50 46.43874 6.68539 36870 ft 429 kts 324°
2026-05-07 08:50 46.46512 6.66454 37043 ft 432 kts 331°
2026-05-07 08:50 46.49200 6.64572 37219 ft 433 kts 331°
2026-05-07 08:50 46.51921 6.62660 37395 ft 434 kts 331°
2026-05-07 08:51 46.54646 6.60745 37575 ft 434 kts 331°
2026-05-07 08:51 46.57366 6.58828 37760 ft 434 kts 331°
2026-05-07 08:51 46.60064 6.56922 37928 ft 435 kts 331°
2026-05-07 08:51 46.62786 6.54994 38103 ft 435 kts 331°
2026-05-07 08:52 46.65514 6.53058 38265 ft 436 kts 331°
2026-05-07 08:52 46.67325 6.51774 38373 ft 436 kts 331°
2026-05-07 08:52 46.70059 6.49837 38527 ft 436 kts 331°
2026-05-07 08:52 46.73688 6.47267 38708 ft 437 kts 331°
2026-05-07 08:53 46.76426 6.45330 38834 ft 437 kts 331°
2026-05-07 08:53 46.78243 6.44044 38940 ft 436 kts 331°
2026-05-07 08:53 46.84617 6.39501 39037 ft 439 kts 331°
2026-05-07 08:54 46.89190 6.36221 39038 ft 440 kts 331°
2026-05-07 08:54 46.94697 6.32282 39041 ft 440 kts 331°
2026-05-07 08:55 47.00168 6.28363 39043 ft 440 kts 331°
2026-05-07 08:55 47.05689 6.24388 39049 ft 440 kts 331°
2026-05-07 08:56 47.11149 6.20455 39054 ft 440 kts 331°
2026-05-07 08:56 47.16678 6.16477 39061 ft 440 kts 331°
2026-05-07 08:57 47.22162 6.12501 39065 ft 441 kts 331°
2026-05-07 08:57 47.27644 6.08536 39068 ft 441 kts 331°
2026-05-07 08:58 47.33240 6.04745 39069 ft 443 kts 340°
2026-05-07 08:58 47.39313 6.03347 39066 ft 448 kts 359°
2026-05-07 08:59 47.45560 6.03506 39063 ft 448 kts 358°
2026-05-07 08:59 47.51773 6.03650 39064 ft 449 kts 358°
2026-05-07 09:00 47.58040 6.03786 39063 ft 449 kts 358°
2026-05-07 09:00 47.64297 6.03918 39069 ft 449 kts 359°
2026-05-07 09:01 47.70518 6.04060 39064 ft 449 kts 359°
2026-05-07 09:01 47.76743 6.05146 39063 ft 452 kts 12°
2026-05-07 09:02 47.82826 6.07436 39067 ft 452 kts 12°
2026-05-07 09:02 47.88910 6.09725 39057 ft 452 kts 12°
2026-05-07 09:03 47.95032 6.12025 39063 ft 452 kts 12°
2026-05-07 09:03 48.01110 6.14322 39061 ft 453 kts 12°
2026-05-07 09:04 48.07219 6.16640 39057 ft 453 kts 12°
2026-05-07 09:04 48.13334 6.18972 39061 ft 453 kts 12°
2026-05-07 09:05 48.19415 6.21280 39071 ft 453 kts 12°
2026-05-07 09:05 48.25542 6.23601 39077 ft 453 kts 12°
2026-05-07 09:06 48.31620 6.25927 39069 ft 453 kts 12°
2026-05-07 09:06 48.37738 6.28280 39069 ft 453 kts 13°
2026-05-07 09:07 48.43854 6.30635 39074 ft 453 kts 12°
2026-05-07 09:07 48.49938 6.32974 39066 ft 453 kts 13°
2026-05-07 09:08 48.56077 6.35352 39068 ft 453 kts 13°
2026-05-07 09:08 48.62166 6.37719 39082 ft 453 kts 13°
2026-05-07 09:09 48.68336 6.39408 39080 ft 450 kts
2026-05-07 09:09 48.74608 6.40023 39079 ft 451 kts
2026-05-07 09:10 48.80873 6.40657 39076 ft 451 kts
2026-05-07 09:10 48.87101 6.41296 39076 ft 451 kts
2026-05-07 09:11 48.93376 6.41933 39075 ft 450 kts
2026-05-07 09:11 48.99601 6.42563 39077 ft 450 kts
2026-05-07 09:12 49.05871 6.43202 39068 ft 451 kts
2026-05-07 09:12 49.12120 6.43231 39072 ft 447 kts 349°
2026-05-07 09:13 49.18116 6.41002 39064 ft 446 kts 343°
2026-05-07 09:13 49.24126 6.38533 39056 ft 446 kts 343°
2026-05-07 09:14 49.30101 6.36080 39056 ft 446 kts 343°
2026-05-07 09:14 49.36112 6.33604 39057 ft 446 kts 343°
2026-05-07 09:15 49.42075 6.31133 39057 ft 446 kts 343°
2026-05-07 09:15 49.48075 6.28636 39049 ft 447 kts 343°
2026-05-07 09:16 49.54088 6.26144 39053 ft 447 kts 343°
2026-05-07 09:16 49.60115 6.23685 39055 ft 447 kts 343°
2026-05-07 09:17 49.66098 6.21247 39052 ft 447 kts 343°
2026-05-07 09:17 49.72126 6.18771 39054 ft 447 kts 343°
2026-05-07 09:18 49.78151 6.16287 39052 ft 447 kts 343°
2026-05-07 09:18 49.84141 6.13815 39052 ft 447 kts 346°
2026-05-07 09:19 49.90350 6.12989 39056 ft 450 kts 359°
2026-05-07 09:19 49.96621 6.13043 39057 ft 450 kts 359°
2026-05-07 09:20 50.02854 6.13077 39052 ft 450 kts 359°
2026-05-07 09:20 50.09131 6.13107 39058 ft 450 kts 359°
2026-05-07 09:21 50.15360 6.13144 39056 ft 450 kts 359°
2026-05-07 09:21 50.21618 6.13184 38930 ft 450 kts 359°
2026-05-07 09:22 50.24748 6.13207 38622 ft 448 kts
2026-05-07 09:22 50.27854 6.13697 38027 ft 447 kts 11°
2026-05-07 09:22 50.30857 6.15025 37620 ft 448 kts 20°
2026-05-07 09:22 50.33680 6.17123 37218 ft 448 kts 30°
2026-05-07 09:23 50.36303 6.19762 36827 ft 448 kts 32°
2026-05-07 09:23 50.38872 6.22403 36441 ft 447 kts 32°
2026-05-07 09:23 50.41468 6.25080 36064 ft 444 kts 32°
2026-05-07 09:23 50.44046 6.27739 35688 ft 440 kts 32°
2026-05-07 09:24 50.46601 6.30375 35296 ft 435 kts 32°
2026-05-07 09:24 50.49084 6.32941 34890 ft 429 kts 32°
2026-05-07 09:24 50.51593 6.35448 34485 ft 423 kts 30°
2026-05-07 09:24 50.54109 6.37807 34099 ft 418 kts 29°
2026-05-07 09:25 50.56623 6.40078 33454 ft 416 kts 28°
2026-05-07 09:25 50.59146 6.42327 32440 ft 424 kts 28°
2026-05-07 09:25 50.61728 6.44631 31492 ft 430 kts 28°
2026-05-07 09:25 50.64333 6.46982 30729 ft 430 kts 28°
2026-05-07 09:26 50.66931 6.49361 29772 ft 434 kts 29°
2026-05-07 09:26 50.69516 6.51755 29080 ft 430 kts 30°
2026-05-07 09:26 50.72064 6.54131 28673 ft 421 kts 30°
2026-05-07 09:26 50.74579 6.56481 28108 ft 416 kts 30°
2026-05-07 09:27 50.77063 6.58800 27535 ft 412 kts 29°
2026-05-07 09:27 50.79534 6.61106 26928 ft 409 kts 29°
2026-05-07 09:27 50.84752 6.64194 25805 ft 400 kts
2026-05-07 09:28 50.87502 6.64787 25241 ft 397 kts
2026-05-07 09:28 50.90239 6.65361 24702 ft 395 kts
2026-05-07 09:28 50.92954 6.65933 24186 ft 392 kts
2026-05-07 09:28 50.95620 6.66501 23688 ft 390 kts
2026-05-07 09:29 50.98305 6.67079 23120 ft 388 kts
2026-05-07 09:29 51.00992 6.67661 22583 ft 385 kts
2026-05-07 09:29 51.03657 6.67848 22067 ft 381 kts 356°
2026-05-07 09:29 51.06259 6.67634 21562 ft 378 kts 356°
2026-05-07 09:30 51.08884 6.67535 21064 ft 376 kts
2026-05-07 09:30 51.11458 6.68233 20499 ft 376 kts 14°
2026-05-07 09:30 51.13938 6.69822 19464 ft 390 kts 25°
2026-05-07 09:30 51.16415 6.71764 18586 ft 399 kts 25°
2026-05-07 09:31 51.18908 6.73736 17931 ft 399 kts 25°
2026-05-07 09:31 51.21389 6.75700 17333 ft 396 kts 25°
2026-05-07 09:31 51.23815 6.77617 16658 ft 389 kts 25°
2026-05-07 09:31 51.26203 6.79504 15939 ft 377 kts 25°
2026-05-07 09:32 51.28520 6.81333 15198 ft 366 kts 25°
2026-05-07 09:32 51.30795 6.83120 14457 ft 358 kts 25°
2026-05-07 09:32 51.32999 6.84849 13973 ft 354 kts 25°
2026-05-07 09:32 51.35201 6.86578 13531 ft 350 kts 25°
2026-05-07 09:33 51.37381 6.88294 13056 ft 347 kts 25°
2026-05-07 09:33 51.39544 6.90001 12573 ft 344 kts 25°
2026-05-07 09:33 51.41654 6.91667 12113 ft 340 kts 25°
2026-05-07 09:33 51.43739 6.93314 11953 ft 328 kts 25°
2026-05-07 09:34 51.45756 6.94908 11821 ft 316 kts 25°
2026-05-07 09:34 51.47691 6.96461 11686 ft 305 kts 28°
2026-05-07 09:34 51.49363 6.98464 11523 ft 296 kts 44°
2026-05-07 09:34 51.50653 7.00998 11252 ft 287 kts 52°
2026-05-07 09:35 51.51802 7.03445 11122 ft 268 kts 52°
2026-05-07 09:35 51.52897 7.05789 10794 ft 258 kts 52°
2026-05-07 09:35 51.53949 7.08042 10346 ft 254 kts 52°
2026-05-07 09:35 51.55011 7.10308 9867 ft 251 kts 52°
2026-05-07 09:36 51.56057 7.12539 9338 ft 248 kts 52°
2026-05-07 09:36 51.57096 7.14752 9016 ft 246 kts 52°
2026-05-07 09:36 51.58114 7.16922 8683 ft 244 kts 52°
2026-05-07 09:36 51.59132 7.19100 8343 ft 243 kts 52°
2026-05-07 09:37 51.60144 7.21269 7998 ft 241 kts 52°
2026-05-07 09:37 51.61150 7.23432 7663 ft 239 kts 53°
2026-05-07 09:37 51.61791 7.25873 7325 ft 240 kts 83°
2026-05-07 09:37 51.61555 7.28478 6976 ft 241 kts 114°
2026-05-07 09:38 51.60487 7.30544 6611 ft 244 kts 146°
2026-05-07 09:38 51.58898 7.31419 6231 ft 244 kts 178°
2026-05-07 09:38 51.57259 7.30843 5836 ft 243 kts 211°
2026-05-07 09:38 51.55919 7.29262 5461 ft 242 kts 222°
2026-05-07 09:39 51.54649 7.27474 5254 ft 242 kts 223°
2026-05-07 09:39 51.53402 7.25648 5069 ft 243 kts 227°
2026-05-07 09:39 51.52253 7.23660 4895 ft 242 kts 230°
2026-05-07 09:39 51.51152 7.21658 4714 ft 241 kts 230°
2026-05-07 09:40 51.50013 7.19697 4506 ft 239 kts 221°
2026-05-07 09:40 51.48793 7.17941 4337 ft 232 kts 229°
2026-05-07 09:40 51.47777 7.15960 4152 ft 229 kts 234°
2026-05-07 09:40 51.46835 7.13943 3966 ft 228 kts 235°
2026-05-07 09:41 51.45882 7.11902 3788 ft 228 kts 235°
2026-05-07 09:41 51.44927 7.09866 3615 ft 227 kts 234°
2026-05-07 09:41 51.43991 7.07875 3436 ft 226 kts 234°
2026-05-07 09:41 51.43050 7.05876 3295 ft 225 kts 234°
2026-05-07 09:42 51.42102 7.03862 3211 ft 225 kts 234°
2026-05-07 09:42 51.41171 7.01887 3110 ft 220 kts 234°
2026-05-07 09:42 51.40268 6.99973 3014 ft 211 kts 234°
2026-05-07 09:42 51.39395 6.98124 3002 ft 206 kts 234°
2026-05-07 09:43 51.38531 6.96294 2987 ft 204 kts 234°
2026-05-07 09:43 51.37689 6.94514 2811 ft 197 kts 234°
2026-05-07 09:43 51.36869 6.92779 2536 ft 194 kts 234°
2026-05-07 09:43 51.36070 6.91092 2282 ft 189 kts 234°
2026-05-07 09:44 51.35299 6.89463 2029 ft 178 kts 235°
2026-05-07 09:44 51.34569 6.87923 1796 ft 166 kts 235°
2026-05-07 09:44 51.33909 6.86533 1576 ft 153 kts 234°
2026-05-07 09:44 51.33280 6.85207 1362 ft 145 kts 235°
2026-05-07 09:45 51.32670 6.83920 1162 ft 143 kts 234°
2026-05-07 09:45 51.32080 6.82670 959 ft 141 kts 235°
2026-05-07 09:45 51.31488 6.81428 762 ft 140 kts 235°
2026-05-07 09:45 51.30904 6.80199 576 ft 138 kts 236°
2026-05-07 09:46 51.30520 6.79397 434 ft 138 kts 235°
2026-05-07 09:46 51.29747 6.77768 202 ft 138 kts 235°
2026-05-07 09:46 51.29368 6.76969 133 ft 122 kts 234°
2026-05-07 09:46 51.28954 6.76100 134 ft 64 kts 232°
2026-05-07 09:47 51.28840 6.75866 128 ft 17 kts 228°
2026-05-07 09:47 51.28722 6.75719 124 ft 11 kts 208°
2026-05-07 09:47 51.28674 6.75692 127 ft 11 kts 194°
2026-05-07 09:47 51.28640 6.75681 123 ft 0 kts 189°
2026-05-07 09:48 51.28582 6.75684 124 ft 5 kts 171°
2026-05-07 09:48 51.28573 6.75686 125 ft 0 kts 168°
2026-05-07 09:48 51.28567 6.75688 125 ft 6 kts 168°
2026-05-07 09:49 51.28523 6.75713 124 ft 6 kts 155°
2026-05-07 09:49 51.28485 6.75749 121 ft 6 kts 145°
2026-05-07 09:49 51.28450 6.75790 124 ft 6 kts 143°
2026-05-07 09:49 51.28419 6.75828 126 ft 7 kts 142°
2026-05-07 09:50 51.28386 6.75868 125 ft 6 kts 142°
2026-05-07 09:50 51.28325 6.75944 130 ft 11 kts 142°
2026-05-07 09:50 51.28266 6.76012 125 ft 11 kts 146°
2026-05-07 09:50 51.28233 6.76045 128 ft 0 kts 147°
2026-05-07 09:51 51.28232 6.76045 128 ft 0 kts 147°
2026-05-07 09:51 51.28208 6.76072 127 ft 6 kts 141°
2026-05-07 09:51 51.28194 6.76130 127 ft 5 kts 88°
2026-05-07 09:51 51.28202 6.76176 126 ft 4 kts 80°
2026-05-07 09:52 51.28194 6.76234 127 ft 6 kts 124°
2026-05-07 09:52 51.28165 6.76278 127 ft 8 kts 138°
2026-05-07 09:52 51.28137 6.76340 130 ft 6 kts 119°
2026-05-07 09:52 51.28114 6.76393 128 ft 5 kts 133°
2026-05-07 09:53 51.28091 6.76394 130 ft 3 kts 198°
2026-05-07 09:53 51.28073 6.76384 130 ft 2 kts 199°
2026-05-07 09:53 51.28059 6.76377 130 ft 2 kts 198°
2026-05-07 09:53 51.28050 6.76372 129 ft 1 kts 197°
2026-05-07 09:54 51.28048 6.76371 129 ft 1 kts 197°
2026-05-07 09:54 51.28044 6.76369 126 ft 0 kts 197°